Regional Weather Roundup
Issued by NWS Charleston, WV

Home | Current Version | Previous Version | Graphics & Text | Print | Product List | Glossary On
Versions: 1 2 3 4 5 6 7 8 9 10 11 12 13 14 15 16 17 18 19 20 21 22 23 24 25 26 27 28 29 30 31 32 33 34 35 36 37 38 39 40 41 42 43 44 45 46 47 48 49 50
016
ASUS41 KRLX 042310
RWRRLX
West Virginia Regional Weather Roundup
National Weather Service Charleston WV
700 PM EDT WED MAY 04 2016

Note: "fair" indicates few or no clouds below 12,000 feet with no
significant weather and/or obstructions to visibility.

WVZ003-050000-
Northern Panhandle of West Virginia

CITY           SKY/WX    TMP DP  RH WIND       PRES   REMARKS
WHEELING       CLOUDY    56  45  66 W8        29.64R
$$

WVZ009-050000-
Northwest West Virginia

CITY           SKY/WX    TMP DP  RH WIND       PRES   REMARKS
PARKERSBURG    LGT RAIN  51  49  92 W3        29.70R FOG
$$

WVZ006-050000-
Western West Virginia

CITY           SKY/WX    TMP DP  RH WIND       PRES   REMARKS
HUNTINGTON     LGT RAIN  53  48  83 W5        29.68S
$$

WVZ015-050000-
West Central West Virginia

CITY           SKY/WX    TMP DP  RH WIND       PRES   REMARKS
CHARLESTON     LGT RAIN  54  47  77 W8        29.69R
$$

WVZ022-031-050000-
North Central West Virginia

CITY           SKY/WX    TMP DP  RH WIND       PRES   REMARKS
CLARKSBURG     RAIN      53  49  86 E6        29.65S FOG
MORGANTOWN     CLOUDY    55  46  71 S3        29.66S
$$

WVZ025-035-042-045-050000-
Southern West Virginia

CITY           SKY/WX    TMP DP  RH WIND       PRES   REMARKS
BECKLEY        CLOUDY    55  43  63 SE3       29.66S
LOGAN          NOT AVBL
BLUEFIELD      CLOUDY    55  35  47 W8        29.67S
LEWISBURG      CLOUDY    55  41  57 W12       29.66R
$$

WVZ047-050000-
Northern Mountains of West Virginia

CITY           SKY/WX    TMP DP  RH WIND       PRES   REMARKS
ELKINS         PTSUNNY   57  39  51 CALM      29.65F
$$

WVZ052-050000-
Eastern Panhandle of West Virginia

CITY           SKY/WX    TMP DP  RH WIND       PRES   REMARKS
MARTINSBURG    CLOUDY    54  52  93 E5        29.64S
PETERSBURG       N/A     64  46  51 CALM      29.63F
$$




USA.gov is the U.S. government's official web portal to all federal, state and local government web resources and services.